World > North America > United States > Arizona
Hourly Weather in Soldier Mesa Tank, ArizonaSoldier Mesa Tank, Arizona Hourly Weather

Soldier Mesa Tank, AZ Hourly Weather

Hourly Weather Soldier Mesa Tank, ArizonaHourly Weather in Soldier Mesa Tank, AZ
Lat: 34.51N, Lon: 111.49W  ICAO: KFLG
Web Search

Ads allow us to feed your daily addiction for the world's greatest weather information. We're determined to offer quality sponsors, in the least annoying way possible.

Feedback

Soldier Mesa Tank Hourly Weather

36 Hour Weather Scroll   °F Click to change Soldier Mesa Tank hourly weather to Imperial units.Click to change Soldier Mesa Tank hourly weather to Metric units. °C
Currently, Clear, temperature is 59°F15°C, dew point 24°F-4°C, humidity 26%. Wind direction is SW at 14 mph23 km/h with visibility of 10.00 mi16 km. Barometric pressure is 30.15 in1021 mb.

Oct 20
4:00 PM

Oct 20
5:00 PM

Oct 20
6:00 PM

Oct 20
7:00 PM

Oct 20
8:00 PM

Oct 20
9:00 PM

Oct 20
10:00 PM

Oct 20
11:00 PM

Oct 21
MIDNIGHT

Oct 21
1:00 AM

Oct 21
2:00 AM

Oct 21
3:00 AM

Oct 21
4:00 AM

Oct 21
5:00 AM

Oct 21
6:00 AM

Oct 21
7:00 AM

Oct 21
8:00 AM

Oct 21
9:00 AM

Oct 21
10:00 AM

Oct 21
11:00 AM

Oct 21
NOON

Oct 21
1:00 PM

Oct 21
2:00 PM

Oct 21
3:00 PM

Oct 21
4:00 PM

Oct 21
5:00 PM

Oct 21
6:00 PM

Oct 21
7:00 PM

Oct 21
8:00 PM

Oct 21
9:00 PM

Oct 21
10:00 PM

Oct 21
11:00 PM

Oct 22
MIDNIGHT

Oct 22
1:00 AM

Oct 22
2:00 AM

Oct 22
3:00 AM
Clear Clear Clear Clear Clear Clear Clear Clear Clear Clear Clear Clear Clear Partly Cloudy Partly Cloudy Partly Cloudy Clear Clear Clear Clear Clear Clear Clear Clear Clear Clear Clear Clear Clear Clear Clear Clear Clear Clear Clear Clear
Clear Clear Clear Clear Clear Clear Clear Clear Clear Clear Clear Clear Clear Partly Cloudy Partly Cloudy Partly Cloudy Clear Clear Clear Clear Clear Clear Clear Clear Clear Clear Clear Clear Clear Clear Clear Clear Clear Clear Clear Clear
58°F14°C 57°F14°C 56°F13°C 51°F11°C 47°F8°C 42°F6°C 40°F4°C 37°F3°C 35°F2°C 34°F1°C 32°F0°C 31°F-1°C 30°F-1°C 30°F-1°C 29°F-2°C 32°F0°C 34°F1°C 37°F3°C 44°F7°C 52°F11°C 59°F15°C 61°F16°C 62°F17°C 64°F18°C 62°F17°C 61°F16°C 59°F15°C 54°F12°C 49°F9°C 44°F7°C 42°F6°C 41°F5°C 39°F4°C 38°F3°C 37°F3°C 36°F2°C
- - - - - - - - - - - - - - - - - - - - - - - - - - - - - - - - - - - -
0% 0% 0% 0% 0% 0% 0% 0% 0% 0% 0% 0% 0% 0% 0% 0% 0% 0% 0% 0% 0% 0% 0% 0% 0% 0% 0% 0% 0% 0% 0% 0% 0% 1% 1% 1%
27°F-3°C 27°F-3°C 28°F-2°C 28°F-2°C 29°F-2°C 29°F-2°C 28°F-2°C 27°F-3°C 26°F-3°C 26°F-3°C 25°F-4°C 25°F-4°C 24°F-4°C 24°F-4°C 23°F-5°C 24°F-4°C 25°F-4°C 26°F-3°C 25°F-4°C 25°F-4°C 24°F-4°C 24°F-4°C 23°F-5°C 23°F-5°C 23°F-5°C 24°F-4°C 24°F-4°C 25°F-4°C 25°F-4°C 26°F-3°C 26°F-3°C 26°F-3°C 26°F-3°C 26°F-3°C 25°F-4°C 25°F-4°C
30% 31% 34% 41% 49% 60% 62% 67% 69% 72% 75% 78% 78% 78% 78% 72% 69% 64% 47% 35% 26% 24% 22% 21% 22% 24% 26% 32% 39% 49% 53% 55% 59% 62% 61% 64%
S S S SE E ENE ENE ENE ENE ENE E E E E E ENE NE N ENE SE SSE SSE SW SW SSE S S SSE SE SE E NE N NE ENE ESE
7 mph 6 mph 6 mph 6 mph 2 mph 2 mph 2 mph 3 mph 3 mph 3 mph 4 mph 4 mph 4 mph 3 mph 3 mph 3 mph 0 mph 0 mph 0 mph 5 mph 5 mph 5 mph 8 mph 8 mph 8 mph 6 mph 6 mph 6 mph 2 mph 2 mph 2 mph 0 mph 0 mph 0 mph 4 mph 4 mph
10 mi16 km 10 mi16 km 10 mi16 km 10 mi16 km 10 mi16 km 10 mi16 km 10 mi16 km 10 mi16 km 10 mi16 km 10 mi16 km 10 mi16 km 10 mi16 km 10 mi16 km 10 mi16 km 10 mi16 km 10 mi16 km 10 mi16 km 10 mi16 km 10 mi16 km 10 mi16 km 10 mi16 km 10 mi16 km 10 mi16 km 10 mi16 km 10 mi16 km 10 mi16 km 10 mi16 km 10 mi16 km 10 mi16 km 10 mi16 km 10 mi16 km 10 mi16 km 10 mi16 km 10 mi16 km 10 mi16 km 10 mi16 km
Hour (MDT)
Weather
Clouds
Temperature
Precip. Type
POP
Dewpoint
Humidity
Wind Direction
Wind Speed
Visibility
POP = Probability of Precipitation. ** Indicates missing data/values from model statistics.

24 Hour Forecast

Rest of Today - Mostly sunny. Near steady temperature in the upper 60s. Light winds.
Tonight - Mostly clear. Lows 41 to 51. Light winds.

48 Hour Forecast API Feed


Wed, Oct 20
3:00 pm

Wed, Oct 20
4:00 pm

Wed, Oct 20
5:00 pm

Wed, Oct 20
6:00 pm

Wed, Oct 20
7:00 pm

Wed, Oct 20
8:00 pm

Wed, Oct 20
9:00 pm

Wed, Oct 20
10:00 pm

Wed, Oct 20
11:00 pm

Thu, Oct 21
Midnight

Thu, Oct 21
1:00 am

Thu, Oct 21
2:00 am

Thu, Oct 21
3:00 am

Thu, Oct 21
4:00 am

Thu, Oct 21
5:00 am

Thu, Oct 21
6:00 am

Thu, Oct 21
7:00 am

Thu, Oct 21
8:00 am

Thu, Oct 21
9:00 am

Thu, Oct 21
10:00 am

Thu, Oct 21
11:00 am

Thu, Oct 21
Noon

Thu, Oct 21
1:00 pm

Thu, Oct 21
2:00 pm

Thu, Oct 21
3:00 pm

Thu, Oct 21
4:00 pm

Thu, Oct 21
5:00 pm

Thu, Oct 21
6:00 pm

Thu, Oct 21
7:00 pm

Thu, Oct 21
8:00 pm

Thu, Oct 21
9:00 pm

Thu, Oct 21
10:00 pm

Thu, Oct 21
11:00 pm

Fri, Oct 22
Midnight

Fri, Oct 22
1:00 am

Fri, Oct 22
2:00 am

Fri, Oct 22
3:00 am

Fri, Oct 22
4:00 am

Fri, Oct 22
5:00 am

Fri, Oct 22
6:00 am

Fri, Oct 22
7:00 am

Fri, Oct 22
8:00 am

Fri, Oct 22
9:00 am

Fri, Oct 22
10:00 am

Fri, Oct 22
11:00 am

Fri, Oct 22
Noon

Fri, Oct 22
1:00 pm

Fri, Oct 22
2:00 pm
SunnySunnySunnyClearClearClearClearClearClearClearClearClearClearClearClearClearPartly CloudySunnySunnySunnySunnyPartly CloudyCloudyOvercastPartly CloudySunnyPartly CloudyPartly CloudyCloudyPartly CloudyClearClearPartly CloudyClearPartly CloudyCloudyPartly CloudyClearClearClearSunnySunnySunnySunnySunnySunnySunnySunny
Sunny Sunny Sunny Clear Clear Clear Clear Clear Clear Clear Clear Clear Clear Clear Clear Clear Partly cloudy Sunny Sunny Sunny Sunny Partly cloudy Cloudy Overcast Partly cloudy Sunny Partly cloudy Partly cloudy Cloudy Partly cloudy Clear Clear Partly cloudy Clear Partly cloudy Cloudy Partly cloudy Clear Clear Clear Sunny Sunny Sunny Sunny Sunny Sunny Sunny Sunny
69°F
21°C
68°F
20°C
69°F
20°C
63°F
17°C
54°F
12°C
51°F
11°C
50°F
10°C
50°F
10°C
49°F
10°C
49°F
9°C
48°F
9°C
48°F
9°C
47°F
9°C
47°F
8°C
47°F
8°C
47°F
8°C
47°F
8°C
47°F
9°C
55°F
13°C
62°F
17°C
67°F
19°C
69°F
21°C
70°F
21°C
71°F
22°C
71°F
22°C
71°F
22°C
69°F
21°C
64°F
18°C
57°F
14°C
55°F
13°C
55°F
13°C
54°F
12°C
53°F
12°C
53°F
12°C
52°F
11°C
52°F
11°C
51°F
11°C
51°F
11°C
50°F
10°C
49°F
10°C
49°F
10°C
49°F
10°C
57°F
14°C
64°F
18°C
68°F
20°C
71°F
22°C
73°F
23°C
74°F
23°C
28°F
-2°C
28°F
-2°C
30°F
-1°C
32°F
0°C
30°F
-1°C
29°F
-2°C
29°F
-2°C
29°F
-2°C
28°F
-2°C
28°F
-2°C
27°F
-3°C
25°F
-4°C
24°F
-5°C
23°F
-5°C
23°F
-5°C
23°F
-5°C
23°F
-5°C
24°F
-5°C
26°F
-3°C
25°F
-4°C
24°F
-4°C
24°F
-5°C
23°F
-5°C
23°F
-5°C
23°F
-5°C
24°F
-5°C
24°F
-4°C
29°F
-2°C
26°F
-3°C
25°F
-4°C
25°F
-4°C
25°F
-4°C
24°F
-4°C
24°F
-4°C
24°F
-5°C
24°F
-4°C
24°F
-4°C
24°F
-4°C
24°F
-5°C
23°F
-5°C
22°F
-6°C
22°F
-6°C
25°F
-4°C
24°F
-4°C
25°F
-4°C
26°F
-4°C
25°F
-4°C
26°F
-4°C
30 in
1016 mb
30 in
1016 mb
30.03 in
1017 mb
30.03 in
1017 mb
30.09 in
1019 mb
30.12 in
1020 mb
30.15 in
1021 mb
30.15 in
1021 mb
30.15 in
1021 mb
30.18 in
1022 mb
30.15 in
1021 mb
30.15 in
1021 mb
30.15 in
1021 mb
30.15 in
1021 mb
30.15 in
1021 mb
30.15 in
1021 mb
30.18 in
1022 mb
30.18 in
1022 mb
30.18 in
1022 mb
30.15 in
1021 mb
30.12 in
1020 mb
30.12 in
1020 mb
30.09 in
1019 mb
30.06 in
1018 mb
30.06 in
1018 mb
30.03 in
1017 mb
30.03 in
1017 mb
30.06 in
1018 mb
30.09 in
1019 mb
30.12 in
1020 mb
30.12 in
1020 mb
30.12 in
1020 mb
30.12 in
1020 mb
30.09 in
1019 mb
30.09 in
1019 mb
30.09 in
1019 mb
30.06 in
1018 mb
30.06 in
1018 mb
30.06 in
1018 mb
30.06 in
1018 mb
30.06 in
1018 mb
30.06 in
1018 mb
30.03 in
1017 mb
30 in
1016 mb
29.97 in
1015 mb
29.97 in
1015 mb
29.94 in
1014 mb
29.88 in
1012 mb
21%22%23%31%39%41%43%44%44%45%43%41%39%38%38%38%39%39%32%24%20%18%17%16%16%17%18%26%30%31%32%31%32%32%33%34%34%35%35%34%34%33%28%22%20%18%17%16%
SWSWSWWSWWENEENEENEENEENEENEENEENEENEENEENEENEENEENESESSWSWSWSWWSWWSWWSWWNNWNENEENENEENEENEENEENEENEENEENEENEENEESSESSWSSWSSWSW
8 mph
12 km/h
8 mph
12 km/h
7 mph
12 km/h
5 mph
8 km/h
2 mph
3 km/h
3 mph
5 km/h
5 mph
8 km/h
5 mph
9 km/h
6 mph
9 km/h
6 mph
9 km/h
6 mph
9 km/h
6 mph
9 km/h
6 mph
10 km/h
6 mph
9 km/h
6 mph
9 km/h
6 mph
9 km/h
6 mph
10 km/h
6 mph
9 km/h
4 mph
7 km/h
2 mph
4 km/h
4 mph
6 km/h
6 mph
9 km/h
7 mph
12 km/h
7 mph
12 km/h
7 mph
12 km/h
7 mph
11 km/h
6 mph
10 km/h
4 mph
6 km/h
1 mph
2 km/h
4 mph
6 km/h
5 mph
9 km/h
5 mph
9 km/h
6 mph
9 km/h
5 mph
9 km/h
6 mph
9 km/h
6 mph
9 km/h
6 mph
9 km/h
6 mph
9 km/h
6 mph
9 km/h
6 mph
9 km/h
6 mph
9 km/h
5 mph
9 km/h
4 mph
6 km/h
4 mph
6 km/h
6 mph
10 km/h
8 mph
13 km/h
10 mph
16 km/h
11 mph
18 km/h
0%0%0%0%0%0%0%0%0%0%0%0%0%0%0%0%0%0%0%0%0%0%0%0%0%0%0%0%0%0%0%0%0%0%0%0%0%0%0%0%0%0%0%0%0%0%0%0%
6 mi
10 km
6 mi
10 km
6 mi
10 km
6 mi
10 km
6 mi
10 km
6 mi
10 km
6 mi
10 km
6 mi
10 km
6 mi
10 km
6 mi
10 km
6 mi
10 km
6 mi
10 km
6 mi
10 km
6 mi
10 km
6 mi
10 km
6 mi
10 km
6 mi
10 km
6 mi
10 km
6 mi
10 km
6 mi
10 km
6 mi
10 km
6 mi
10 km
6 mi
10 km
6 mi
10 km
6 mi
10 km
6 mi
10 km
6 mi
10 km
6 mi
10 km
6 mi
10 km
6 mi
10 km
6 mi
10 km
6 mi
10 km
6 mi
10 km
6 mi
10 km
6 mi
10 km
6 mi
10 km
6 mi
10 km
6 mi
10 km
6 mi
10 km
6 mi
10 km
6 mi
10 km
6 mi
10 km
6 mi
10 km
6 mi
10 km
6 mi
10 km
6 mi
10 km
6 mi
10 km
6 mi
10 km

Day/Time
Weather
Condition
Temperature
Dew Point
Pressure
Humidity
Wind Direction
Wind Speed
Prob Precip %
Visibility
Prob Precip % = Probability of Precipitation.